Torna al catalogo

DELTA 4 R/B

AttivoMEO
NORAD 47238·ROCKET BODY·🇺🇸 United States

Lanciato Dec 11, 2020 da Cape Canaveral Space Force Station

Loading…

Prossimi Passaggi (prossime 24 ore)

TLE

AggiornatoSource: Space-Track

Epoca: Sep 14, 2026, 21:41 UTC

1 47238U 20095B   26257.90409230 -.00000222  00000-0  00000-0 0  9996
2 47238   2.8821 302.0966 0256358   7.8833 352.2357  0.95076404 12051

Traccia DELTA 4 R/B in tempo reale con AllMySat

Download on the App Store